SENTINEL-2A

Last updated on Mon Sep 21 2026 00:02:45 GMT+0000 (Coordinated Universal Time)

1 40697U 15028A 26263.59927622 .00000189 00000+0 88691-4 0 9996 2 40697 98.5664 337.0618 0001130 82.3351 277.7960 14.30817414587372
UTC large
Height (km)
Speed (km/s)
/
Latitude / Longitude
Inclination (degrees)
Orbital Period (minutes)
Azimuth
Elevation
Range (km)
Doppler Factor

Next 0 passes for location: London (51.5072 / 0.1276)

No passes found over London.
SENTINEL-2A